Powrót do katalogu

CZ-6A DEB

AktywnyPO
NORAD 60961·DEBRIS·🇨🇳 China

Wystrzelony Aug 6, 2024 z Taiyuan Satellite Launch Center

Loading…

Następne Przeloty (najbliższe 24 godziny)

TLE

ŚwieżeSource: Space-Track

Epoka: Sep 14, 2026, 11:22 UTC

1 60961U 24140LL  26257.47419291  .00001695  00000-0  67174-3 0  9991
2 60961  89.0014 264.1823 0027987 255.1838 104.6256 14.28258108108627

Śledź CZ-6A DEB w czasie rzeczywistym z AllMySat

Download on the App Store